This demonstration page uses our WeatherBlox Daily Observations layout. Learn more.

Left ArrowRight Arrow

39.12711, -84.51439

Hourly Observations for October 2, 2018

Temp ( °F °C ) Dew Point ( °F °C ) Humidity (%) Winds ( mph kmh ) Pressure ( in mb ) Visibility ( mi km ) Precip ( " mm )
12:53 am 00:53 Clear 68 20 68 20 100 100 N N/A 30.14 1021 10 16 N/A
1:53 am 01:53 Mostly Cloudy 69 20.6 69 20.6 100 100 N N/A 30.13 1020 10 16 N/A
2:53 am 02:53 Partly Cloudy 69 20.6 69 20.6 100 100 N N/A 30.14 1021 10 16 N/A
3:53 am 03:53 Cloudy 69 20.6 69 20.6 100 100 SSW 5 7 30.13 1020 10 16 N/A
4:53 am 04:53 Mostly Cloudy 69 20.6 69 20.6 100 100 N N/A 30.12 1020 10 16 N/A
5:53 am 05:53 Cloudy 70 21.1 70 21.1 100 100 N N/A 30.13 1020 10 16 N/A
6:53 am 06:53 Cloudy with Light Rain 69 20.6 69 20.6 100 100 N N/A 30.14 1021 9 14 N/A
7:53 am 07:53 Mostly Sunny 69 20.6 69 20.6 100 100 N N/A 30.14 1021 10 16 N/A
8:53 am 08:53 Hazy 71 21.7 71 21.7 100 100 S 3 6 30.13 1020 6 10 N/A
9:53 am 09:53 Hazy 73 22.8 71 21.7 94 94 SW 7 11 30.13 1020 6 10 N/A
10:38 am 10:38 Cloudy with Haze 75 23.9 72 22.2 90 90 SW 7 11 30.12 1020 6 10 N/A
10:53 am 10:53 Cloudy with Haze 75 23.9 71 21.7 88 88 WSW 9 15 30.15 1021 8 13 N/A
11:53 am 11:53 Cloudy 76 24.4 71 21.7 85 85 SW 8 13 30.14 1021 10 16 N/A
12:53 pm 12:53 Cloudy 78 25.6 71 21.7 79 79 SW 8 13 30.12 1020 10 16 N/A
1:53 pm 13:53 Mostly Cloudy 80 26.7 72 22.2 76 76 SSW 10 17 30.09 1019 10 16 N/A
2:53 pm 14:53 Mostly Cloudy 83 28.3 71 21.7 67 67 WSW 8 13 30.08 1019 10 16 N/A
3:53 pm 15:53 Partly Cloudy 84 28.9 69 20.6 61 61 SW 12 19 30.06 1018 10 16 N/A
4:53 pm 16:53 Partly Cloudy 82 27.8 69 20.6 65 65 SW 13 20 30.05 1018 10 16 N/A
5:53 pm 17:53 Partly Cloudy 82 27.8 69 20.6 65 65 WSW 9 15 30.05 1018 10 16 N/A
6:53 pm 18:53 Mostly Sunny 79 26.1 69 20.6 72 72 SW 7 11 30.06 1018 10 16 N/A
7:53 pm 19:53 Clear 72 22.2 70 21.1 94 94 SSW 5 7 30.06 1018 10 16 N/A
8:53 pm 20:53 Clear 71 21.7 70 21.1 96 96 N N/A 30.08 1019 10 16 N/A
9:53 pm 21:53 Mostly Cloudy 71 21.7 70 21.1 96 96 N N/A 30.10 1019 10 16 N/A
10:53 pm 22:53 Partly Cloudy 73 22.8 70 21.1 90 90 N N/A 30.10 1019 10 16 N/A
11:53 pm 23:53 Clear 69 20.6 69 20.6 100 100 N N/A 30.10 1019 10 16 N/A

Powered by AerisWeather